| time (UTC) | temp F | wind direction | speed MPH | gust MPH | rain 1hr in | rain 24hr in | rain mn in | humidity % | barometer mb |
| 20260502152009 | 43 | 25 | 4.0 | 16.0 | 0.00 | 0.21 | 0.21 | 85 | 1011.5 |
| 20260502151540 | 43 | 5 | 9.0 | 16.0 | 0.00 | 0.21 | 0.21 | 87 | 1011.5 |
| 20260502151010 | 43 | 270 | 5.0 | 12.0 | 0.00 | 0.21 | 0.21 | 87 | 1011.4 |
| 20260502150511 | 42 | 5 | 8.0 | 12.0 | 0.00 | 0.21 | 0.21 | 88 | 1011.4 |
| 20260502130510 | 45 | 301 | 1.0 | 4.0 | 0.00 | 0.21 | 0.21 | 89 | 1011.2 |
| 20260502123509 | 45 | 266 | 2.0 | 3.0 | 0.00 | 0.21 | 0.21 | 90 | 1011.1 |
| 20260502123035 | 45 | 249 | 1.0 | 6.0 | 0.00 | 0.21 | 0.21 | 90 | 1011.1 |
| 20260502122507 | 44 | 237 | 1.0 | 6.0 | 0.00 | 0.21 | 0.21 | 91 | 1011.3 |
| 20260502122013 | 44 | 191 | 1.0 | 5.0 | 0.00 | 0.21 | 0.21 | 91 | 1011.2 |
| 20260502121521 | 44 | 254 | 1.0 | 5.0 | 0.00 | 0.21 | 0.21 | 91 | 1011.1 |
| 20260502121004 | 44 | 234 | 2.0 | 6.0 | 0.00 | 0.21 | 0.21 | 92 | 1011.0 |
| 20260502120506 | 44 | 248 | 1.0 | 6.0 | 0.00 | 0.21 | 0.21 | 92 | 1011.1 |
| 20260502115503 | 44 | 182 | 2.0 | 5.0 | 0.00 | 0.21 | 0.21 | 92 | 1011.0 |
| 20260502115003 | 43 | 209 | 1.0 | 8.0 | 0.00 | 0.21 | 0.21 | 92 | 1011.2 |
| 20260502114508 | 43 | 212 | 3.0 | 8.0 | 0.01 | 0.21 | 0.21 | 92 | 1011.1 |
| 20260502114004 | 43 | 211 | 3.0 | 5.0 | 0.02 | 0.21 | 0.21 | 92 | 1011.2 |
| 20260502113508 | 43 | 213 | 1.0 | 5.0 | 0.02 | 0.21 | 0.21 | 92 | 1011.3 |
| 20260502113014 | 43 | 184 | 3.0 | 5.0 | 0.03 | 0.21 | 0.21 | 92 | 1011.2 |
| 20260502112504 | 43 | 202 | 1.0 | 4.0 | 0.03 | 0.21 | 0.21 | 92 | 1011.0 |
| 20260502112006 | 43 | 189 | 2.0 | 3.0 | 0.03 | 0.21 | 0.21 | 92 | 1011.0 |
| 20260502111525 | 43 | 210 | 1.0 | 3.0 | 0.03 | 0.21 | 0.21 | 92 | 1010.9 |
| 20260502111007 | 43 | 180 | 2.0 | 3.0 | 0.03 | 0.21 | 0.21 | 92 | 1010.9 |
| 20260502110506 | 43 | 207 | 0.0 | 3.0 | 0.03 | 0.21 | 0.21 | 93 | 1011.0 |
| 20260502110024 | 42 | 207 | 1.0 | 3.0 | 0.03 | 0.21 | 0.21 | 92 | 1011.0 |
| 20260502105504 | 42 | 213 | 2.0 | 4.0 | 0.03 | 0.21 | 0.21 | 92 | 1011.0 |
| 20260502105003 | 42 | 188 | 2.0 | 4.0 | 0.03 | 0.21 | 0.21 | 92 | 1011.1 |
| 20260502104508 | 42 | 186 | 3.0 | 6.0 | 0.02 | 0.20 | 0.20 | 92 | 1011.1 |
| 20260502104004 | 42 | 229 | 3.0 | 6.0 | 0.02 | 0.19 | 0.19 | 92 | 1011.2 |
| 20260502103504 | 42 | 204 | 3.0 | 5.0 | 0.04 | 0.19 | 0.19 | 92 | 1011.1 |
| 20260502103011 | 42 | 189 | 2.0 | 5.0 | 0.06 | 0.18 | 0.18 | 92 | 1010.9 |
| 20260502102505 | 42 | 188 | 2.0 | 4.0 | 0.08 | 0.18 | 0.18 | 92 | 1010.8 |
| 20260502102005 | 42 | 171 | 3.0 | 5.0 | 0.09 | 0.18 | 0.18 | 92 | 1010.7 |
| 20260502101518 | 42 | 189 | 2.0 | 5.0 | 0.10 | 0.18 | 0.18 | 92 | 1010.6 |
| 20260502101006 | 42 | 181 | 3.0 | 4.0 | 0.10 | 0.18 | 0.18 | 92 | 1010.4 |
| 20260502100507 | 42 | 179 | 1.0 | 2.0 | 0.10 | 0.18 | 0.18 | 92 | 1010.3 |
| 20260502091516 | 42 | 5 | 0.0 | 0.0 | 0.00 | 0.08 | 0.08 | 91 | 1010.7 |
| 20260502091008 | 42 | 5 | 0.0 | 0.0 | 0.00 | 0.08 | 0.08 | 91 | 1010.6 |
| 20260502090505 | 43 | 5 | 0.0 | 0.0 | 0.00 | 0.08 | 0.08 | 91 | 1010.5 |
| 20260502071508 | 43 | 312 | 1.0 | 4.0 | 0.00 | 0.03 | 0.03 | 88 | 1011.0 |
| 20260502071005 | 43 | 304 | 2.0 | 4.0 | 0.01 | 0.03 | 0.03 | 88 | 1010.9 |
| 20260502070504 | 43 | 327 | 1.0 | 3.0 | 0.02 | 0.03 | 0.03 | 88 | 1010.9 |
| 20260502070015 | 43 | 315 | 1.0 | 2.0 | 0.02 | 0.03 | 0.03 | 88 | 1010.9 |
| 20260502065503 | 43 | 294 | 0.0 | 1.0 | 0.02 | 0.03 | 0.03 | 88 | 1011.0 |
| 20260502065007 | 43 | 299 | 0.0 | 0.0 | 0.02 | 0.03 | 0.03 | 88 | 1010.9 |
| 20260502064519 | 43 | 299 | 0.0 | 2.0 | 0.02 | 0.03 | 0.03 | 88 | 1010.8 |
| 20260502064012 | 43 | 299 | 0.0 | 2.0 | 0.02 | 0.03 | 0.03 | 88 | 1010.9 |
| 20260502063507 | 43 | 299 | 0.0 | 3.0 | 0.02 | 0.03 | 0.03 | 88 | 1010.7 |
| 20260502063023 | 43 | 299 | 0.0 | 4.0 | 0.02 | 0.03 | 0.03 | 87 | 1010.8 |
| 20260502062510 | 44 | 306 | 1.0 | 4.0 | 0.02 | 0.03 | 0.03 | 87 | 1010.8 |
| 20260502062010 | 43 | 349 | 1.0 | 3.0 | 0.02 | 0.03 | 0.03 | 87 | 1011.1 |
| 20260502061534 | 44 | 314 | 0.0 | 3.0 | 0.02 | 0.03 | 0.03 | 87 | 1011.2 |
| 20260502061008 | 44 | 291 | 1.0 | 3.0 | 0.01 | 0.02 | 0.02 | 87 | 1011.2 |
| 20260502060506 | 44 | 287 | 0.0 | 3.0 | 0.00 | 0.01 | 0.01 | 87 | 1011.1 |
| 20260502060009 | 44 | 277 | 0.0 | 4.0 | 0.00 | 0.01 | 0.01 | 87 | 1011.1 |
| 20260502055505 | 44 | 319 | 0.0 | 4.0 | 0.00 | 0.01 | 0.01 | 87 | 1011.0 |
| 20260502055006 | 44 | 326 | 0.0 | 2.0 | 0.00 | 0.01 | 0.01 | 87 | 1011.0 |
| 20260502054518 | 44 | 278 | 0.0 | 0.0 | 0.01 | 0.01 | 0.01 | 86 | 1011.1 |
| 20260502054007 | 44 | 203 | 0.0 | 0.0 | 0.01 | 0.01 | 0.01 | 86 | 1010.8 |
| 20260502053503 | 44 | 203 | 0.0 | 0.0 | 0.01 | 0.01 | 0.01 | 85 | 1010.9 |
| 20260502053022 | 44 | 203 | 0.0 | 0.0 | 0.01 | 0.01 | 0.01 | 85 | 1010.9 |
| 20260502052508 | 45 | 203 | 0.0 | 0.0 | 0.01 | 0.01 | 0.01 | 85 | 1010.9 |
| 20260502052008 | 45 | 203 | 0.0 | 0.0 | 0.01 | 0.01 | 0.01 | 84 | 1011.0 |
| 20260502051525 | 45 | 203 | 0.0 | 0.0 | 0.01 | 0.01 | 0.01 | 84 | 1011.0 |
| 20260502051003 | 45 | 203 | 0.0 | 0.0 | 0.01 | 0.01 | 0.01 | 84 | 1011.1 |
| 20260502050503 | 45 | 203 | 0.0 | 0.0 | 0.01 | 0.01 | 0.01 | 83 | 1011.1 |
| 20260502050010 | 45 | 203 | 0.0 | 2.0 | 0.01 | 0.01 | 0.01 | 83 | 1011.1 |
| 20260502045506 | 46 | 203 | 0.0 | 2.0 | 0.01 | 0.01 | 0.01 | 83 | 1011.3 |
| 20260502045004 | 46 | 203 | 0.0 | 0.0 | 0.01 | 0.01 | 0.01 | 82 | 1011.4 |
| 20260502044512 | 45 | 203 | 0.0 | 2.0 | 0.00 | 0.00 | 0.00 | 79 | 1011.6 |
| 20260502044008 | 45 | 203 | 0.0 | 2.0 | 0.00 | 0.00 | 0.00 | 79 | 1011.7 |
| 20260502043507 | 45 | 203 | 1.0 | 2.0 | 0.00 | 0.00 | 0.00 | 79 | 1011.5 |
| 20260502043004 | 45 | 203 | 0.0 | 3.0 | 0.00 | 0.00 | 0.00 | 79 | 1011.4 |
| 20260502042502 | 45 | 198 | 2.0 | 3.0 | 0.00 | 0.00 | 0.00 | 79 | 1011.3 |
| 20260502042004 | 45 | 275 | 0.0 | 0.0 | 0.00 | 0.00 | 0.00 | 79 | 1011.1 |
| 20260502041512 | 45 | 275 | 0.0 | 0.0 | 0.00 | 0.00 | 0.00 | 79 | 1011.3 |
| 20260502041003 | 46 | 275 | 0.0 | 0.0 | 0.00 | 0.00 | 0.00 | 78 | 1011.3 |
| 20260502040504 | 46 | 275 | 0.0 | 0.0 | 0.00 | 0.00 | 0.00 | 78 | 1011.2 |
| 20260502040012 | 46 | 275 | 0.0 | 0.0 | 0.00 | 0.00 | 0.00 | 78 | 1011.0 |
| 20260502035503 | 45 | 275 | 0.0 | 0.0 | 0.00 | 0.00 | 0.00 | 76 | 1011.1 |
| 20260502035005 | 45 | 275 | 0.0 | 0.0 | 0.00 | 0.00 | 0.00 | 74 | 1011.1 |
| 20260502034512 | 45 | 275 | 0.0 | 0.0 | 0.00 | 0.00 | 0.00 | 75 | 1011.0 |
| 20260502034004 | 45 | 275 | 0.0 | 0.0 | 0.00 | 0.00 | 0.00 | 75 | 1011.0 |
| 20260502033504 | 45 | 275 | 0.0 | 0.0 | 0.00 | 0.00 | 0.00 | 74 | 1011.2 |
| 20260502033024 | 45 | 275 | 0.0 | 0.0 | 0.00 | 0.00 | 0.00 | 74 | 1011.2 |
| 20260502032504 | 45 | 275 | 0.0 | 0.0 | 0.00 | 0.00 | 0.00 | 73 | 1011.2 |
| 20260502032007 | 45 | 275 | 0.0 | 0.0 | 0.00 | 0.00 | 0.00 | 73 | 1011.3 |
| 20260502031504 | 45 | 275 | 0.0 | 0.0 | 0.00 | 0.00 | 0.00 | 72 | 1011.3 |
| 20260502031003 | 45 | 275 | 0.0 | 0.0 | 0.00 | 0.00 | 0.00 | 72 | 1011.2 |
| 20260502030504 | 46 | 275 | 0.0 | 0.0 | 0.00 | 0.00 | 0.00 | 72 | 1011.2 |
| 20260502030006 | 46 | 274 | 0.0 | 0.0 | 0.00 | 0.00 | 0.00 | 71 | 1011.4 |
| 20260502025503 | 46 | 275 | 0.0 | 1.0 | 0.00 | 0.00 | 0.00 | 70 | 1011.4 |
| 20260502025003 | 46 | 275 | 0.0 | 1.0 | 0.00 | 0.00 | 0.00 | 70 | 1011.3 |
| 20260502024510 | 46 | 275 | 1.0 | 2.0 | 0.00 | 0.00 | 0.00 | 70 | 1011.4 |
| 20260502024006 | 46 | 275 | 0.0 | 2.0 | 0.00 | 0.00 | 0.00 | 70 | 1011.4 |
| 20260502023504 | 47 | 275 | 0.0 | 2.0 | 0.00 | 0.00 | 0.00 | 69 | 1011.4 |
| 20260502023014 | 47 | 275 | 0.0 | 2.0 | 0.00 | 0.00 | 0.00 | 69 | 1011.4 |
| 20260502022505 | 47 | 299 | 0.0 | 0.0 | 0.00 | 0.00 | 0.00 | 69 | 1011.3 |
| 20260502022008 | 47 | 299 | 0.0 | 0.0 | 0.00 | 0.00 | 0.00 | 69 | 1011.4 |
| 20260502021519 | 47 | 299 | 0.0 | 0.0 | 0.00 | 0.00 | 0.00 | 67 | 1011.5 |
| 20260502021009 | 48 | 299 | 0.0 | 0.0 | 0.00 | 0.00 | 0.00 | 66 | 1011.3 |
| 20260502020507 | 48 | 299 | 0.0 | 0.0 | 0.00 | 0.00 | 0.00 | 66 | 1011.4 |
| 20260502020004 | 48 | 299 | 0.0 | 0.0 | 0.00 | 0.00 | 0.00 | 66 | 1011.5 |
| 20260502015504 | 48 | 299 | 0.0 | 1.0 | 0.00 | 0.00 | 0.00 | 64 | 1011.5 |
| 20260502015003 | 49 | 299 | 0.0 | 1.0 | 0.00 | 0.00 | 0.00 | 63 | 1011.5 |
| 20260502014505 | 49 | 299 | 0.0 | 2.0 | 0.00 | 0.00 | 0.00 | 63 | 1011.5 |
| 20260502014004 | 49 | 306 | 0.0 | 2.0 | 0.00 | 0.00 | 0.00 | 61 | 1011.5 |
| 20260502013504 | 49 | 261 | 0.0 | 2.0 | 0.00 | 0.00 | 0.00 | 60 | 1011.5 |
| 20260502013014 | 50 | 324 | 0.0 | 3.0 | 0.00 | 0.00 | 0.00 | 62 | 1011.4 |
| 20260502012504 | 50 | 324 | 1.0 | 5.0 | 0.00 | 0.00 | 0.00 | 58 | 1011.4 |
| 20260502012009 | 50 | 321 | 2.0 | 6.0 | 0.00 | 0.00 | 0.00 | 56 | 1011.4 |
| 20260502011516 | 51 | 351 | 1.0 | 6.0 | 0.00 | 0.00 | 0.00 | 58 | 1011.4 |
| 20260502011007 | 51 | 319 | 0.0 | 3.0 | 0.00 | 0.00 | 0.00 | 59 | 1011.3 |
| 20260502010504 | 51 | 317 | 0.0 | 3.0 | 0.00 | 0.00 | 0.00 | 58 | 1011.2 |
| 20260502010023 | 51 | 304 | 1.0 | 5.0 | 0.00 | 0.00 | 0.00 | 55 | 1011.2 |
| 20260502005510 | 51 | 315 | 3.0 | 5.0 | 0.00 | 0.00 | 0.00 | 52 | 1011.2 |
| 20260502005010 | 51 | 309 | 1.0 | 5.0 | 0.00 | 0.00 | 0.00 | 53 | 1011.1 |
| 20260502004504 | 51 | 336 | 2.0 | 10.0 | 0.00 | 0.00 | 0.00 | 53 | 1011.1 |
| 20260502004003 | 51 | 352 | 4.0 | 10.0 | 0.00 | 0.00 | 0.00 | 56 | 1011.1 |
| 20260502003504 | 51 | 334 | 1.0 | 8.0 | 0.00 | 0.00 | 0.00 | 52 | 1011.0 |
| 20260502003012 | 51 | 293 | 0.0 | 9.0 | 0.00 | 0.00 | 0.00 | 54 | 1010.9 |
| 20260502002504 | 51 | 5 | 4.0 | 9.0 | 0.00 | 0.00 | 0.00 | 53 | 1010.8 |
| 20260502002009 | 51 | 16 | 3.0 | 5.0 | 0.00 | 0.00 | 0.00 | 56 | 1010.7 |
| 20260502001516 | 51 | 313 | 2.0 | 3.0 | 0.00 | 0.00 | 0.00 | 58 | 1010.7 |
| 20260502001007 | 51 | 5 | 0.0 | 2.0 | 0.00 | 0.00 | 0.00 | 61 | 1010.6 |
| 20260502000508 | 51 | 360 | 0.0 | 3.0 | 0.00 | 0.00 | 0.00 | 61 | 1010.5 |
| 20260502000021 | 51 | 360 | 1.0 | 6.0 | 0.00 | 0.00 | 0.00 | 56 | 1010.4 |
| 20260501235511 | 52 | 336 | 1.0 | 6.0 | 0.00 | 0.00 | 0.00 | 61 | 1010.4 |
| 20260501235008 | 52 | 352 | 1.0 | 6.0 | 0.00 | 0.00 | 0.00 | 62 | 1010.4 |
| 20260501234521 | 52 | 231 | 0.0 | 0.0 | 0.00 | 0.00 | 0.00 | 62 | 1010.4 |
| 20260501234007 | 53 | 230 | 0.0 | 0.0 | 0.00 | 0.00 | 0.00 | 58 | 1010.3 |
| 20260501233502 | 53 | 230 | 0.0 | 0.0 | 0.00 | 0.00 | 0.00 | 60 | 1010.2 |
| 20260501233008 | 53 | 231 | 0.0 | 0.0 | 0.00 | 0.00 | 0.00 | 58 | 1010.2 |
| 20260501232504 | 53 | 230 | 0.0 | 0.0 | 0.00 | 0.00 | 0.00 | 55 | 1010.0 |
| 20260501232002 | 54 | 289 | 0.0 | 2.0 | 0.00 | 0.00 | 0.00 | 55 | 1010.0 |
| 20260501231511 | 54 | 289 | 0.0 | 2.0 | 0.00 | 0.00 | 0.00 | 53 | 1009.9 |
| 20260501231004 | 54 | 291 | 0.0 | 2.0 | 0.00 | 0.00 | 0.00 | 54 | 1009.9 |
| 20260501230509 | 54 | 243 | 0.0 | 1.0 | 0.00 | 0.00 | 0.00 | 51 | 1009.8 |
| 20260501230016 | 55 | 282 | 0.0 | 0.0 | 0.00 | 0.00 | 0.00 | 53 | 1009.7 |
| 20260501225504 | 55 | 282 | 0.0 | 0.0 | 0.00 | 0.00 | 0.00 | 51 | 1009.7 |
| 20260501225004 | 55 | 282 | 0.0 | 1.0 | 0.00 | 0.00 | 0.00 | 50 | 1009.7 |
| 20260501224520 | 55 | 271 | 0.0 | 3.0 | 0.00 | 0.00 | 0.00 | 47 | 1009.6 |
| 20260501224005 | 55 | 271 | 1.0 | 3.0 | 0.00 | 0.00 | 0.00 | 46 | 1009.6 |
| 20260501223506 | 55 | 294 | 0.0 | 2.0 | 0.00 | 0.00 | 0.00 | 45 | 1009.6 |
| 20260501223024 | 55 | 294 | 0.0 | 3.0 | 0.00 | 0.00 | 0.00 | 40 | 1009.6 |
| 20260501222510 | 55 | 272 | 1.0 | 3.0 | 0.00 | 0.00 | 0.00 | 42 | 1009.6 |
| 20260501222003 | 56 | 290 | 0.0 | 4.0 | 0.00 | 0.00 | 0.00 | 42 | 1009.6 |
| 20260501221508 | 56 | 52 | 0.0 | 6.0 | 0.00 | 0.00 | 0.00 | 41 | 1009.6 |
| 20260501221003 | 56 | 232 | 2.0 | 7.0 | 0.00 | 0.00 | 0.00 | 40 | 1009.6 |
| 20260501220503 | 56 | 275 | 1.0 | 10.0 | 0.00 | 0.00 | 0.00 | 40 | 1009.5 |
| 20260501220011 | 56 | 200 | 1.0 | 10.0 | 0.00 | 0.00 | 0.00 | 42 | 1009.5 |
| 20260501215507 | 56 | 202 | 6.0 | 9.0 | 0.00 | 0.00 | 0.00 | 39 | 1009.5 |
| 20260501215008 | 56 | 240 | 2.0 | 7.0 | 0.00 | 0.00 | 0.00 | 40 | 1009.5 |
| 20260501214515 | 56 | 134 | 0.0 | 3.0 | 0.00 | 0.00 | 0.00 | 40 | 1009.5 |
| 20260501214008 | 56 | 212 | 0.0 | 7.0 | 0.00 | 0.00 | 0.00 | 38 | 1009.4 |
| 20260501213508 | 57 | 279 | 1.0 | 9.0 | 0.00 | 0.00 | 0.00 | 38 | 1009.5 |
| 20260501213021 | 57 | 297 | 2.0 | 9.0 | 0.00 | 0.00 | 0.00 | 39 | 1009.5 |
| 20260501212507 | 57 | 223 | 3.0 | 7.0 | 0.00 | 0.00 | 0.00 | 38 | 1009.4 |
| 20260501212007 | 57 | 272 | 3.0 | 7.0 | 0.00 | 0.00 | 0.00 | 40 | 1009.4 |
| 20260501211526 | 57 | 22 | 1.0 | 4.0 | 0.00 | 0.00 | 0.00 | 38 | 1009.4 |
| 20260501211004 | 57 | 340 | 3.0 | 4.0 | 0.00 | 0.00 | 0.00 | 37 | 1009.5 |
| 20260501210505 | 58 | 277 | 1.0 | 5.0 | 0.00 | 0.00 | 0.00 | 37 | 1009.6 |
| 20260501210012 | 58 | 292 | 0.0 | 5.0 | 0.00 | 0.00 | 0.00 | 38 | 1009.6 |
| 20260501205503 | 59 | 350 | 3.0 | 7.0 | 0.00 | 0.00 | 0.00 | 37 | 1009.7 |
| 20260501205005 | 59 | 169 | 1.0 | 9.0 | 0.00 | 0.00 | 0.00 | 39 | 1009.6 |
| 20260501204516 | 59 | 252 | 5.0 | 10.0 | 0.00 | 0.00 | 0.00 | 35 | 1009.5 |
| 20260501204007 | 58 | 360 | 3.0 | 10.0 | 0.00 | 0.00 | 0.00 | 36 | 1009.5 |
| 20260501203507 | 58 | 352 | 4.0 | 8.0 | 0.00 | 0.00 | 0.00 | 38 | 1009.4 |
| 20260501203021 | 58 | 249 | 3.0 | 7.0 | 0.00 | 0.00 | 0.00 | 39 | 1009.3 |
| 20260501202507 | 58 | 203 | 4.0 | 9.0 | 0.00 | 0.00 | 0.00 | 39 | 1009.4 |
| 20260501202008 | 57 | 234 | 1.0 | 9.0 | 0.00 | 0.00 | 0.00 | 41 | 1009.6 |
| 20260501201526 | 58 | 321 | 5.0 | 11.0 | 0.00 | 0.00 | 0.00 | 38 | 1009.6 |
| 20260501201010 | 59 | 309 | 3.0 | 11.0 | 0.00 | 0.00 | 0.00 | 37 | 1009.6 |
| 20260501200512 | 59 | 248 | 4.0 | 11.0 | 0.00 | 0.00 | 0.00 | 37 | 1009.5 |
| 20260501200026 | 59 | 27 | 1.0 | 8.0 | 0.00 | 0.00 | 0.00 | 38 | 1009.6 |
| 20260501195504 | 58 | 28 | 2.0 | 8.0 | 0.00 | 0.00 | 0.00 | 37 | 1009.6 |
| 20260501195005 | 58 | 205 | 3.0 | 15.0 | 0.00 | 0.00 | 0.00 | 41 | 1009.7 |
| 20260501194515 | 57 | 313 | 2.0 | 15.0 | 0.00 | 0.00 | 0.00 | 40 | 1009.9 |
| 20260501194005 | 57 | 302 | 5.0 | 15.0 | 0.00 | 0.00 | 0.00 | 40 | 1009.7 |
| 20260501193505 | 57 | 163 | 2.0 | 10.0 | 0.00 | 0.00 | 0.00 | 44 | 1009.6 |
| 20260501193021 | 57 | 307 | 5.0 | 10.0 | 0.00 | 0.00 | 0.00 | 39 | 1009.9 |
| 20260501192509 | 58 | 200 | 3.0 | 10.0 | 0.00 | 0.00 | 0.00 | 40 | 1009.9 |
| 20260501192008 | 58 | 284 | 4.0 | 10.0 | 0.00 | 0.00 | 0.00 | 37 | 1009.9 |
| 20260501191525 | 58 | 13 | 1.0 | 9.0 | 0.00 | 0.00 | 0.00 | 40 | 1009.8 |
| 20260501191012 | 58 | 281 | 3.0 | 9.0 | 0.00 | 0.00 | 0.00 | 41 | 1009.8 |
| 20260501190508 | 57 | 55 | 2.0 | 8.0 | 0.00 | 0.00 | 0.00 | 46 | 1009.9 |
| 20260501190027 | 57 | 187 | 1.0 | 12.0 | 0.00 | 0.00 | 0.00 | 44 | 1009.9 |
| 20260501185510 | 56 | 279 | 5.0 | 12.0 | 0.00 | 0.00 | 0.00 | 41 | 1009.9 |
| 20260501185011 | 55 | 352 | 2.0 | 11.0 | 0.00 | 0.00 | 0.00 | 42 | 1010.1 |
| 20260501184519 | 55 | 5 | 2.0 | 11.0 | 0.00 | 0.00 | 0.00 | 42 | 1010.2 |
| 20260501184005 | 55 | 340 | 4.0 | 14.0 | 0.00 | 0.00 | 0.00 | 42 | 1010.2 |
| 20260501183505 | 56 | 14 | 5.0 | 14.0 | 0.00 | 0.00 | 0.00 | 41 | 1010.2 |
| 20260501183018 | 56 | 38 | 4.0 | 10.0 | 0.00 | 0.00 | 0.00 | 42 | 1010.2 |
| 20260501182507 | 56 | 329 | 1.0 | 12.0 | 0.00 | 0.00 | 0.00 | 40 | 1010.4 |
| 20260501182007 | 56 | 177 | 4.0 | 15.0 | 0.00 | 0.00 | 0.00 | 41 | 1010.4 |
| 20260501181522 | 56 | 300 | 6.0 | 15.0 | 0.00 | 0.01 | 0.00 | 40 | 1010.4 |
| 20260501181010 | 56 | 238 | 4.0 | 15.0 | 0.00 | 0.01 | 0.00 | 41 | 1010.4 |
| 20260501180510 | 56 | 315 | 3.0 | 18.0 | 0.00 | 0.01 | 0.00 | 43 | 1010.4 |
| 20260501180033 | 55 | 29 | 2.0 | 18.0 | 0.00 | 0.01 | 0.00 | 42 | 1010.5 |
| 20260501175508 | 55 | 211 | 4.0 | 9.0 | 0.00 | 0.01 | 0.00 | 43 | 1010.6 |
| 20260501175016 | 55 | 226 | 2.0 | 11.0 | 0.00 | 0.01 | 0.00 | 46 | 1010.6 |
| 20260501174537 | 55 | 191 | 4.0 | 11.0 | 0.00 | 0.01 | 0.00 | 45 | 1010.5 |
| 20260501174006 | 55 | 345 | 6.0 | 11.0 | 0.00 | 0.01 | 0.00 | 43 | 1010.5 |
| 20260501173508 | 55 | 162 | 0.0 | 11.0 | 0.00 | 0.01 | 0.00 | 44 | 1010.5 |
| 20260501173015 | 55 | 284 | 4.0 | 14.0 | 0.00 | 0.01 | 0.00 | 41 | 1010.6 |
| 20260501172505 | 55 | 351 | 6.0 | 14.0 | 0.00 | 0.01 | 0.00 | 43 | 1010.7 |
| 20260501172008 | 55 | 360 | 5.0 | 15.0 | 0.00 | 0.01 | 0.00 | 43 | 1010.7 |
| 20260501171524 | 55 | 240 | 5.0 | 15.0 | 0.00 | 0.01 | 0.00 | 42 | 1010.6 |
| 20260501171008 | 54 | 352 | 5.0 | 17.0 | 0.00 | 0.01 | 0.00 | 43 | 1010.6 |
| 20260501170509 | 54 | 311 | 3.0 | 17.0 | 0.00 | 0.01 | 0.00 | 43 | 1010.7 |
| 20260501170023 | 54 | 26 | 3.0 | 14.0 | 0.00 | 0.01 | 0.00 | 40 | 1010.6 |
| 20260501165510 | 55 | 293 | 5.0 | 14.0 | 0.00 | 0.01 | 0.00 | 43 | 1010.7 |
| 20260501165012 | 54 | 209 | 6.0 | 14.0 | 0.00 | 0.01 | 0.00 | 47 | 1010.5 |
| 20260501164527 | 54 | 333 | 4.0 | 16.0 | 0.00 | 0.01 | 0.00 | 46 | 1010.5 |
| 20260501164011 | 53 | 331 | 3.0 | 19.0 | 0.00 | 0.01 | 0.00 | 45 | 1010.6 |
| 20260501163507 | 53 | 313 | 11.0 | 18.0 | 0.00 | 0.01 | 0.00 | 43 | 1010.8 |
| 20260501163027 | 53 | 279 | 5.0 | 15.0 | 0.00 | 0.01 | 0.00 | 43 | 1010.9 |
| 20260501162508 | 53 | 321 | 5.0 | 12.0 | 0.00 | 0.01 | 0.00 | 44 | 1010.9 |
| 20260501162007 | 53 | 197 | 3.0 | 15.0 | 0.00 | 0.01 | 0.00 | 44 | 1010.8 |
| 20260501161518 | 52 | 139 | 5.0 | 18.0 | 0.00 | 0.01 | 0.00 | 48 | 1010.7 |
| 20260501161008 | 52 | 30 | 6.0 | 18.0 | 0.00 | 0.01 | 0.00 | 46 | 1010.8 |
| 20260501160511 | 53 | 344 | 6.0 | 17.0 | 0.00 | 0.01 | 0.00 | 44 | 1010.7 |
| 20260501160023 | 52 | 352 | 7.0 | 17.0 | 0.00 | 0.01 | 0.00 | 49 | 1010.8 |
| 20260501155507 | 52 | 37 | 7.0 | 14.0 | 0.00 | 0.01 | 0.00 | 46 | 1010.8 |
| 20260501155012 | 52 | 352 | 8.0 | 17.0 | 0.00 | 0.01 | 0.00 | 47 | 1011.0 |